QPF
0.00 0.00 0.00 0.00 0.00 0.00 0.00 0.00 0.00 0.00 0.00 0.00 0.00 0.00 0.00 0.00 0.00 0.00 0.00 0.00 0.00 0.00 0.00 0.00 0.00 0.00 0.00 0.00 0.00 0.00 0.00 0.00 0.00 0.00 0.00 0.00 0.00 0.00 0.00 0.00 0.00 0.00 0.00 0.00 0.00 0.00 0.00
0.00 0.00 0.00 0.00 0.00 0.00 0.00 0.00 0.00 0.00 0.00 0.00 0.00 0.00 0.00 0.00 0.00 0.00 0.00 0.00 0.00 0.00 0.00 0.00 0.00 0.00 0.00 0.00 0.00 0.00 0.00 0.00 0.00 0.00 0.00 0.00 0.00 0.00 0.00 0.00 0.00 0.00 0.00 0.00 0.00 0.00 0.00
0.00 0.00 0.00 0.00 0.00 0.00 0.00 0.00 0.00 0.00 0.00 0.00 0.00 0.00 0.00 0.00 0.00 0.00 0.00 0.00 0.00 0.00 0.00 0.00 0.00 0.00 0.00 0.00 0.00 0.00 0.00 0.00 0.00 0.00 0.00 0.00 0.00 0.00 0.00 0.00 0.00 0.00 0.00 0.00 0.00 0.00 0.00
0.00 0.00 0.00 0.00 0.00 0.00 0.00 0.00 0.00 0.00 0.00 0.00 0.00 0.00 0.00 0.00 0.00 0.00 0.00 0.00 0.00 0.00 0.00 0.00 0.00 0.00 0.00 0.00 0.00 0.00 0.00 0.00 0.00 0.00 0.00 0.00 0.00 0.00 0.00 0.00 0.00 0.00 0.00 0.00 0.00 0.00 0.00
0.00 0.00 0.00 0.00 0.00 0.00 0.00 0.00 0.00 0.00 0.00 0.00 0.00 0.00 0.00 0.00 0.00 0.00 0.00 0.00 0.00 0.00 0.00 0.00 0.00 0.00 0.00 0.00 0.00 0.00 0.00 0.00 0.00 0.00 0.00 0.00 0.00 0.00 0.00 0.00 0.00 0.00 0.00 0.00 0.00 0.00 0.00
0.00 0.00 0.00 0.00 0.00 0.00 0.00 0.00 0.00 0.00 0.00 0.00 0.00 0.00 0.00 0.00 0.00 0.00 0.00 0.00 0.00 0.00 0.00 0.00 0.00 0.00 0.00 0.00 0.00 0.00 0.00 0.00 0.00 0.00 0.00 0.00 0.00 0.00 0.00 0.00 0.00 0.00 0.00 0.00 0.00 0.00 0.00
0.00 0.00 0.00 0.00 0.00 0.00 0.00 0.00 0.00 0.00 0.00 0.00 0.00 0.00 0.00 0.00 0.00 0.00 0.00 0.00 0.00 0.00 0.00 0.00 0.00 0.00 0.00 0.00 0.00 0.00 0.00 0.00 0.00 0.00 0.00 0.00 0.00 0.00 0.00 0.00 0.00 0.00 0.00 0.00 0.00 0.00 0.00
0.00 0.00 0.00 0.00 0.00 0.00 0.00 0.00 0.00 0.00 0.00 0.00 0.00 0.00 0.00 0.00 0.00 0.00 0.00 0.00 0.00 0.00 0.00 0.00 0.00 0.00 0.00 0.00 0.00 0.00 0.00 0.00 0.00 0.00 0.00 0.00 0.00 0.00 0.00 0.00 0.00 0.00 0.00 0.00 0.00 0.00 0.00
0.00 0.00 0.00 0.00 0.00 0.00 0.00 0.00 0.00 0.00 0.00 0.00 0.00 0.00 0.00 0.00 0.00 0.00 0.00 0.00 0.00 0.00 0.00 0.00 0.00 0.00 0.00 0.00 0.00 0.00 0.00 0.00 0.00 0.00 0.00 0.00 0.00 0.00 0.00 0.00 0.00 0.00 0.00 0.00 0.00 0.00 0.00
0.00 0.00 0.00 0.00 0.00 0.00 0.00 0.00 0.00 0.00 0.00 0.00 0.00 0.00 0.00 0.00 0.00 0.00 0.00 0.00 0.00 0.00 0.00 0.00 0.00 0.00 0.00 0.00 0.00 0.00 0.00 0.00 0.00 0.00 0.00 0.00 0.00 0.00 0.00 0.00 0.00 0.00 0.00 0.00 0.00 0.00 0.00
0.00 0.00 0.00 0.00 0.00 0.00 0.00 0.00 0.00 0.00 0.00 0.00 0.00 0.00 0.00 0.00 0.00 0.00 0.00 0.00 0.00 0.00 0.00 0.00 0.00 0.00 0.00 0.00 0.00 0.00 0.00 0.00 0.00 0.00 0.00 0.00 0.00 0.00 0.00 0.00 0.00 0.00 0.00 0.00 0.00 0.00 0.00
0.00 0.00 0.00 0.00 0.00 0.00 0.00 0.00 0.00 0.00 0.00 0.00 0.00 0.00 0.00 0.00 0.00 0.00 0.00 0.00 0.00 0.00 0.00 0.00 0.00 0.00 0.00 0.00 0.00 0.00 0.00 0.00 0.00 0.00 0.00 0.00 0.00 0.00 0.00 0.00 0.00 0.00 0.00 0.00 0.00 0.00 0.00
0.00 0.00 0.00 0.00 0.00 0.00 0.00 0.00 0.00 0.00 0.00 0.00 0.00 0.00 0.00 0.00 0.00 0.00 0.00 0.00 0.00 0.00 0.00 0.00 0.00 0.00 0.00 0.00 0.00 0.00 0.00 0.00 0.00 0.00 0.00 0.00 0.00 0.00 0.00 0.00 0.00 0.00 0.00 0.00 0.00 0.00 0.00
0.00 0.00 0.00 0.00 0.00 0.00 0.00 0.00 0.00 0.00 0.00 0.00 0.00 0.00 0.00 0.00 0.00 0.00 0.00 0.00 0.00 0.00 0.00 0.00 0.00 0.00 0.00 0.00 0.00 0.00 0.00 0.00 0.00 0.00 0.00 0.00 0.00 0.00 0.00 0.00 0.00 0.00 0.00 0.00 0.00 0.00 0.00
0.01 0.00 0.00 0.00 0.00 0.00 0.00 0.00 0.00 0.00 0.00 0.00 0.00 0.00 0.00 0.00 0.00 0.00 0.00 0.00 0.00 0.00 0.00 0.00 0.00 0.00 0.00 0.00 0.00 0.00 0.00 0.00 0.00 0.00 0.00 0.00 0.00 0.00 0.00 0.00 0.00 0.00 0.00 0.00 0.00 0.00 0.00
0.01 0.01 0.01 0.01 0.00 0.00 0.00 0.00 0.00 0.00 0.00 0.00 0.00 0.00 0.00 0.00 0.00 0.00 0.00 0.00 0.00 0.00 0.00 0.00 0.00 0.00 0.00 0.00 0.00 0.00 0.00 0.00 0.00 0.00 0.00 0.00 0.00 0.00 0.00 0.00 0.00 0.00 0.00 0.00 0.00 0.00 0.00
0.02 0.02 0.01 0.00 0.00 0.00 0.00 0.00 0.00 0.00 0.00 0.00 0.00 0.00 0.00 0.00 0.00 0.00 0.00 0.00 0.00 0.00 0.00 0.00 0.00 0.00 0.00 0.00 0.00 0.00 0.00 0.00 0.00 0.00 0.00 0.00 0.00 0.00 0.00 0.00 0.00 0.00 0.00 0.00 0.00 0.00 0.00
0.02 0.01 0.00 0.00 0.00 0.00 0.00 0.00 0.00 0.00 0.00 0.00 0.00 0.00 0.00 0.00 0.00 0.00 0.00 0.00 0.00 0.00 0.00 0.00 0.00 0.00 0.00 0.00 0.00 0.00 0.00 0.00 0.00 0.00 0.00 0.00 0.00 0.00 0.00 0.00 0.00 0.00 0.00 0.00 0.00 0.00 0.00
0.00 0.00 0.00 0.00 0.00 0.00 0.00 0.00 0.00 0.00 0.00 0.00 0.00 0.00 0.00 0.00 0.00 0.00 0.00 0.00 0.00 0.00 0.00 0.00 0.00 0.00 0.00 0.00 0.00 0.00 0.00 0.00 0.00 0.00 0.00 0.00 0.00 0.00 0.00 0.00 0.00 0.00 0.00 0.00 0.00 0.00 0.00
0.01 0.01 0.02 0.01 0.00 0.00 0.00 0.00 0.01 0.00 0.00 0.00 0.00 0.00 0.00 0.00 0.00 0.00 0.00 0.00 0.00 0.00 0.00 0.00 0.00 0.00 0.00 0.00 0.00 0.00 0.00 0.00 0.00 0.00 0.00 0.00 0.00 0.00 0.00 0.00 0.00 0.00 0.00 0.00 0.00 0.00 0.00
0.01 0.01 0.01 0.01 0.01 0.01 0.00 0.01 0.02 0.01 0.00 0.00 0.00 0.00 0.00 0.00 0.00 0.00 0.00 0.00 0.00 0.00 0.00 0.00 0.00 0.00 0.00 0.00 0.00 0.00 0.00 0.00 0.00 0.00 0.00 0.00 0.00 0.00 0.00 0.00 0.00 0.00 0.00 0.00 0.00 0.00 0.00
0.01 0.01 0.01 0.01 0.01 0.01 0.01 0.03 0.04 0.01 0.00 0.00 0.00 0.00 0.00 0.00 0.00 0.00 0.00 0.00 0.00 0.00 0.00 0.00 0.00 0.00 0.00 0.00 0.00 0.00 0.00 0.00 0.00 0.00 0.00 0.00 0.00 0.00 0.00 0.00 0.00 0.00 0.00 0.00 0.00 0.00 0.00
0.01 0.01 0.01 0.01 0.02 0.03 0.04 0.06 0.05 0.02 0.01 0.01 0.00 0.00 0.00 0.00 0.00 0.00 0.00 0.00 0.00 0.00 0.00 0.00 0.00 0.00 0.00 0.00 0.00 0.00 0.00 0.00 0.00 0.00 0.00 0.00 0.00 0.00 0.00 0.00 0.00 0.00 0.00 0.00 0.00 0.00 0.00
0.01 0.01 0.02 0.02 0.02 0.01 0.02 0.03 0.06 0.04 0.02 0.02 0.01 0.00 0.00 0.00 0.00 0.00 0.00 0.00 0.00 0.00 0.00 0.00 0.00 0.00 0.00 0.00 0.00 0.00 0.00 0.00 0.00 0.00 0.00 0.00 0.00 0.00 0.00 0.00 0.00 0.00 0.00 0.00 0.00 0.00 0.00
0.01 0.02 0.03 0.03 0.02 0.02 0.02 0.02 0.06 0.06 0.02 0.03 0.01 0.00 0.00 0.00 0.00 0.00 0.00 0.00 0.00 0.00 0.00 0.00 0.00 0.00 0.00 0.00 0.00 0.00 0.00 0.00 0.00 0.00 0.00 0.00 0.00 0.00 0.00 0.00 0.00 0.00 0.00 0.00 0.00 0.00 0.00
0.02 0.02 0.03 0.03 0.02 0.03 0.02 0.02 0.04 0.07 0.04 0.03 0.03 0.01 0.01 0.00 0.00 0.00 0.00 0.00 0.00 0.00 0.00 0.00 0.00 0.00 0.00 0.00 0.00 0.00 0.00 0.00 0.00 0.00 0.00 0.00 0.00 0.00 0.00 0.00 0.00 0.00 0.00 0.00 0.00 0.00 0.00
0.02 0.01 0.01 0.03 0.03 0.03 0.02 0.02 0.04 0.09 0.06 0.04 0.04 0.03 0.03 0.02 0.00 0.00 0.00 0.00 0.00 0.00 0.00 0.00 0.00 0.00 0.00 0.00 0.00 0.00 0.00 0.00 0.00 0.00 0.00 0.00 0.00 0.00 0.00 0.01 0.00 0.00 0.00 0.00 0.00 0.00 0.00
0.02 0.02 0.03 0.02 0.02 0.02 0.01 0.02 0.03 0.02 0.03 0.05 0.02 0.01 0.02 0.02 0.00 0.00 0.00 0.00 0.00 0.00 0.00 0.00 0.00 0.00 0.00 0.04 0.05 0.01 0.00 0.00 0.00 0.00 0.00 0.00 0.00 0.00 0.01 0.01 0.00 0.00 0.00 0.00 0.00 0.00 0.00
0.01 0.02 0.03 0.04 0.04 0.06 0.06 0.03 0.02 0.01 0.01 0.03 0.02 0.03 0.05 0.03 0.00 0.00 0.00 0.00 0.00 0.00 0.00 0.00 0.00 0.00 0.00 0.01 0.04 0.07 0.06 0.03 0.00 0.00 0.00 0.00 0.00 0.00 0.00 0.00 0.00 0.01 0.00 0.00 0.00 0.00 0.00
MSLP
1024.14 1023.75 1023.45 1023.15 1022.82 1022.47 1022.00 1021.51 1021.03 1020.47 1019.90 1019.30 1018.72 1018.16 1017.61 1017.09 1016.57 1016.02 1015.38 1014.80 1014.31 1013.77 1013.24 1013.00 1012.50 1012.17 1011.21 1008.59 1005.16 1004.40 1005.32 1005.59 1005.60 1005.44 1004.80 1004.09 1003.54 1003.00 1002.01 1001.33 1001.22 1001.18 1000.77 1000.82 1000.91 1001.65 1001.98
1024.33 1023.90 1023.55 1023.19 1022.86 1022.50 1022.12 1021.63 1021.09 1020.61 1020.06 1019.48 1018.81 1018.15 1017.46 1016.83 1016.17 1015.48 1015.01 1014.55 1013.92 1013.46 1012.85 1012.56 1012.25 1012.10 1010.30 1006.47 1003.88 1004.31 1004.69 1004.93 1004.57 1004.71 1004.06 1003.70 1002.90 1002.50 1001.61 1001.05 1000.84 1000.34 1000.63 1000.62 1000.68 1001.15 1002.01
1024.61 1024.27 1023.92 1023.55 1023.07 1022.54 1022.12 1021.61 1021.08 1020.55 1020.01 1019.45 1018.88 1018.19 1017.44 1016.76 1015.97 1015.12 1014.45 1014.06 1013.56 1012.88 1012.39 1011.96 1011.84 1011.25 1008.71 1004.72 1003.88 1004.20 1004.36 1003.99 1004.00 1003.86 1003.26 1003.18 1002.85 1002.35 1001.63 1000.88 1000.78 1000.63 1000.66 1000.83 1000.76 1001.14 1001.98
1024.58 1024.19 1023.78 1023.36 1022.94 1022.55 1022.16 1021.64 1021.11 1020.61 1019.93 1019.27 1018.67 1018.05 1017.41 1016.74 1015.87 1014.98 1014.10 1013.47 1012.82 1012.15 1011.55 1011.40 1011.47 1010.32 1006.12 1003.70 1003.94 1003.93 1003.73 1003.59 1003.81 1003.65 1003.38 1003.05 1003.13 1002.52 1001.42 1000.73 1000.64 1000.39 1000.09 999.58 1000.47 1001.30 1002.00
1024.56 1024.23 1023.81 1023.32 1022.91 1022.51 1022.08 1021.54 1021.01 1020.53 1019.95 1019.34 1018.68 1017.90 1017.04 1016.38 1015.59 1014.77 1013.78 1012.85 1012.09 1011.53 1011.35 1011.36 1010.66 1008.90 1004.27 1004.02 1003.47 1002.47 1002.71 1002.47 1003.14 1003.35 1003.40 1003.09 1003.06 1002.23 1001.48 1000.65 999.89 999.44 998.73 998.87 1000.13 1001.13 1001.83
1024.68 1024.31 1023.84 1023.36 1022.97 1022.51 1022.02 1021.46 1020.85 1020.29 1019.69 1019.13 1018.62 1017.87 1016.90 1016.13 1015.19 1014.23 1013.16 1011.98 1011.62 1011.44 1011.14 1010.66 1009.62 1007.99 1003.83 1002.10 1002.13 1002.34 1002.41 1002.31 1002.32 1002.74 1002.99 1002.82 1002.56 1001.45 1000.65 999.59 998.19 998.11 998.41 998.16 998.85 1000.53 1001.16
1024.74 1024.30 1023.89 1023.44 1022.95 1022.47 1022.01 1021.55 1021.01 1020.35 1019.63 1018.92 1018.15 1017.45 1016.67 1015.87 1015.02 1014.15 1012.82 1010.53 1010.84 1010.06 1008.90 1006.40 1004.61 1003.24 1002.05 1001.83 1002.23 1001.66 1001.97 1001.99 1001.68 1001.81 1001.31 1001.51 1001.11 999.64 999.25 998.88 998.35 997.78 997.87 997.84 998.25 999.33 1000.37
1024.60 1024.17 1023.79 1023.34 1022.78 1022.31 1021.84 1021.33 1020.80 1020.19 1019.54 1018.72 1018.00 1017.37 1016.42 1015.34 1014.55 1013.70 1012.85 1010.31 1009.87 1009.92 1006.95 1004.32 1003.10 1002.35 1001.92 1001.90 1001.56 1000.81 1001.50 1001.14 1000.87 1000.40 1000.43 1000.64 999.50 999.45 999.40 998.98 998.50 997.70 997.49 997.45 997.73 999.12 999.88
1024.48 1024.04 1023.67 1023.25 1022.78 1022.26 1021.70 1021.18 1020.55 1019.94 1019.33 1018.58 1017.76 1017.29 1016.37 1015.08 1013.91 1012.79 1011.53 1010.23 1010.18 1009.61 1006.91 1002.18 1001.55 1001.10 1000.81 1001.12 1000.68 999.86 1000.22 1000.16 999.94 999.69 999.37 998.97 998.79 999.16 998.90 998.47 998.12 997.55 997.09 997.09 997.26 998.91 999.47
1024.34 1023.92 1023.47 1023.08 1022.64 1022.13 1021.57 1021.03 1020.45 1019.85 1019.17 1018.47 1017.60 1017.00 1016.43 1015.31 1013.36 1012.21 1010.41 1010.30 1010.30 1009.89 1005.90 1001.10 1000.38 999.81 1000.51 1000.18 999.79 999.17 999.02 999.52 999.36 998.76 998.81 998.82 998.37 998.51 998.80 998.30 997.82 996.93 997.08 997.20 997.36 998.05 998.21
1023.99 1023.56 1023.11 1022.68 1022.25 1021.80 1021.28 1020.72 1020.16 1019.61 1019.01 1018.31 1017.50 1016.56 1016.44 1016.49 1014.45 1011.76 1010.54 1010.41 1010.43 1009.41 1004.07 999.99 999.11 999.15 999.33 999.24 998.35 998.50 998.55 998.88 998.30 998.30 998.41 997.67 997.85 998.20 997.92 997.54 997.62 996.89 996.79 997.30 997.48 997.50 997.90
1023.58 1023.22 1022.81 1022.39 1021.96 1021.52 1021.04 1020.43 1019.79 1019.24 1018.59 1017.94 1017.26 1016.48 1016.12 1014.09 1013.57 1011.65 1011.05 1010.61 1009.75 1007.06 1001.39 998.75 998.25 998.15 998.30 998.10 997.84 998.52 998.58 998.54 998.27 998.13 998.07 997.63 997.92 997.74 997.45 997.51 997.51 997.56 997.20 996.96 997.28 997.32 996.69
1023.27 1022.89 1022.43 1021.98 1021.62 1021.26 1020.82 1020.24 1019.57 1018.89 1018.12 1017.34 1016.59 1015.81 1015.43 1014.22 1011.33 1010.94 1010.75 1009.43 1007.17 1002.98 999.87 997.92 997.27 997.22 996.83 996.71 996.92 997.35 997.83 997.78 997.17 997.16 997.05 997.47 996.97 997.19 997.05 996.92 997.16 997.23 996.92 996.69 996.81 996.24 995.67
1022.80 1022.50 1022.14 1021.65 1021.31 1020.98 1020.55 1020.02 1019.41 1018.71 1017.86 1016.90 1015.72 1014.55 1012.56 1012.06 1011.36 1011.55 1010.44 1008.23 1003.78 999.93 998.59 997.52 997.12 996.60 996.53 996.15 996.10 996.20 996.64 996.68 996.87 996.53 995.98 996.20 996.19 996.20 996.27 995.68 995.56 995.99 995.94 995.07 994.94 995.07 995.49
1022.23 1021.94 1021.61 1021.28 1020.92 1020.56 1020.10 1019.64 1019.06 1018.41 1017.61 1016.81 1015.28 1012.40 1011.08 1010.30 1010.97 1010.87 1009.03 1005.11 1000.73 999.22 998.28 997.31 996.60 996.21 995.54 995.72 996.20 995.76 995.52 995.22 995.39 995.68 995.35 994.81 994.99 995.49 995.59 995.89 995.38 994.98 994.88 995.30 994.83 994.74 994.62
1021.66 1021.33 1021.10 1020.81 1020.50 1020.12 1019.68 1019.15 1018.62 1018.07 1017.42 1016.85 1015.11 1012.52 1009.86 1009.71 1010.33 1009.89 1007.35 1002.65 999.96 999.29 998.04 997.30 995.91 995.19 994.75 994.68 995.36 994.93 994.41 994.31 994.26 994.81 995.10 994.72 994.71 994.83 994.93 995.64 994.85 993.91 994.85 995.08 994.20 993.56 993.35
1021.06 1020.75 1020.50 1020.23 1019.90 1019.56 1018.99 1018.55 1018.14 1017.71 1017.21 1016.31 1014.58 1011.58 1009.45 1009.75 1009.78 1007.91 1004.00 1001.44 1000.15 999.39 998.92 997.65 996.24 995.55 995.21 994.84 995.01 994.15 993.92 993.97 993.88 993.96 994.85 994.84 995.11 994.29 994.88 994.02 993.50 993.90 993.40 993.64 993.92 993.72 993.10
1020.79 1020.44 1020.13 1019.76 1019.46 1019.13 1018.75 1018.37 1017.99 1017.63 1017.19 1015.74 1014.29 1010.95 1009.44 1009.62 1008.37 1004.94 1002.63 1000.88 1000.39 999.12 998.63 998.14 997.09 996.07 995.56 995.44 995.02 994.65 994.21 994.05 993.76 993.74 993.87 994.47 994.36 994.11 993.41 993.37 993.66 993.03 993.14 993.25 992.68 993.00 992.77
1020.24 1019.87 1019.50 1019.14 1018.87 1018.54 1018.25 1018.02 1017.80 1017.60 1017.43 1016.15 1013.79 1010.94 1009.10 1009.10 1006.71 1004.28 1002.54 1001.47 1000.34 1000.01 998.29 997.71 996.81 996.51 996.16 995.53 995.31 994.88 994.32 994.50 994.45 993.94 993.35 993.80 993.77 993.53 993.48 993.22 993.02 992.51 992.54 992.64 992.82 992.76 991.35
1019.74 1019.39 1019.07 1018.75 1018.41 1018.13 1017.87 1017.65 1017.40 1017.24 1017.23 1016.83 1014.25 1010.31 1007.98 1007.87 1006.89 1005.70 1003.80 1002.55 1001.00 1000.01 998.94 997.78 996.79 996.25 996.23 995.62 995.39 994.88 994.49 994.35 994.47 994.19 994.40 993.89 993.29 992.96 991.83 991.69 991.86 992.01 992.03 991.93 991.90 991.07 991.21
1019.23 1018.80 1018.53 1018.23 1017.94 1017.58 1017.40 1017.07 1017.04 1016.97 1016.89 1016.81 1014.06 1010.61 1010.16 1007.79 1006.31 1006.62 1005.83 1004.33 1002.46 1000.53 999.63 998.61 997.60 996.41 995.83 995.60 995.30 994.94 995.02 994.31 994.65 994.47 994.45 994.16 993.26 992.52 992.48 991.92 991.37 991.14 991.15 991.61 990.97 990.72 990.27
1018.66 1018.27 1017.89 1017.63 1017.40 1017.09 1016.79 1016.42 1016.50 1016.40 1016.73 1016.48 1014.52 1012.37 1011.36 1010.15 1008.91 1007.72 1006.30 1004.78 1003.35 1002.08 1001.01 999.71 998.43 997.31 996.61 995.98 995.63 995.01 995.12 994.69 994.25 993.92 993.76 993.81 993.38 992.88 991.96 991.73 991.35 990.75 990.66 990.64 990.47 990.45 990.03
1017.96 1017.65 1017.23 1016.89 1016.75 1016.53 1016.13 1015.93 1016.03 1016.01 1016.34 1015.67 1014.23 1013.82 1013.49 1010.56 1009.09 1008.08 1006.39 1005.34 1004.41 1003.84 1002.91 1001.55 1000.30 999.52 998.32 997.41 996.99 996.24 995.82 995.54 994.89 994.33 993.95 993.62 993.31 993.02 991.68 990.97 990.59 990.01 989.52 989.44 989.88 989.83 989.63
1017.29 1016.83 1016.58 1016.24 1015.96 1015.73 1015.55 1015.19 1015.28 1015.25 1015.52 1015.48 1014.64 1014.34 1013.92 1011.08 1009.04 1008.27 1007.40 1006.61 1005.85 1005.43 1004.78 1003.22 1002.39 1001.52 1000.10 1000.02 999.29 997.81 996.77 995.90 995.71 995.13 994.77 993.96 993.66 992.86 991.82 991.49 990.70 989.43 989.18 989.19 989.02 989.12 989.02
1016.57 1016.13 1015.74 1015.59 1015.31 1015.06 1014.79 1014.55 1014.52 1014.50 1014.73 1015.01 1014.83 1014.87 1014.23 1012.12 1010.10 1008.82 1008.15 1007.33 1006.38 1005.92 1005.14 1004.31 1003.42 1002.51 1001.48 1000.74 999.03 996.94 995.59 994.85 994.08 994.00 994.04 993.80 993.71 992.67 992.16 991.30 990.61 990.20 989.86 989.67 989.45 988.60 988.65
1015.78 1015.42 1015.09 1014.78 1014.52 1014.27 1014.04 1013.89 1013.78 1013.70 1013.87 1014.36 1014.27 1014.37 1014.17 1012.82 1009.61 1009.07 1008.61 1008.19 1006.66 1005.73 1004.82 1003.96 1003.94 1003.25 1002.23 1000.73 998.12 995.64 993.73 992.84 992.66 992.39 992.89 992.85 993.41 993.08 992.02 991.56 991.30 991.77 992.48 992.59 992.01 989.33 988.38
1015.02 1014.68 1014.42 1014.15 1013.82 1013.67 1013.41 1013.28 1013.08 1013.09 1013.12 1013.66 1013.49 1013.52 1013.57 1012.49 1010.15 1009.30 1008.54 1007.65 1006.70 1006.15 1005.00 1004.54 1005.05 1003.43 1001.97 1000.13 997.60 995.01 993.00 991.54 990.94 990.92 991.59 991.86 992.18 991.86 991.95 992.36 992.32 993.25 993.49 992.71 992.43 989.93 987.91
1014.43 1013.95 1013.73 1013.49 1013.24 1013.06 1012.88 1012.75 1012.63 1012.69 1012.65 1013.13 1012.83 1012.93 1013.25 1012.14 1010.35 1009.39 1008.33 1007.79 1007.94 1006.98 1005.64 1005.33 1005.02 1003.95 1002.48 1000.54 997.61 994.73 992.26 990.98 990.58 990.11 991.06 991.32 991.47 991.22 992.11 992.78 993.21 994.52 993.67 993.08 993.11 991.64 990.39
1013.80 1013.50 1013.18 1012.94 1012.68 1012.47 1012.30 1012.20 1012.20 1012.24 1012.34 1012.57 1012.43 1011.91 1012.25 1012.08 1010.18 1008.68 1007.93 1007.56 1007.08 1006.96 1006.79 1006.30 1005.56 1004.86 1003.37 1001.73 999.18 996.99 994.03 991.50 991.09 990.22 990.57 990.72 990.82 991.33 993.47 993.55 995.05 995.16 995.11 994.50 993.94 992.61 991.34
Thickness
5696 5698 5699 5701 5702 5704 5706 5709 5712 5716 5719 5723 5727 5731 5734 5738 5741 5746 5750 5754 5757 5761 5763 5766 5770 5773 5784 5794 5812 5843 5837 5837 5837 5836 5832 5831 5828 5829 5825 5840 5845 5835 5845 5854 5858 5852 5849
5691 5693 5695 5697 5699 5701 5703 5706 5709 5711 5715 5719 5723 5728 5732 5737 5742 5747 5751 5754 5758 5761 5765 5766 5768 5770 5782 5785 5842 5839 5840 5838 5838 5833 5833 5836 5835 5844 5838 5839 5838 5854 5849 5851 5857 5853 5848
5688 5688 5690 5691 5693 5697 5699 5703 5706 5709 5712 5715 5719 5723 5729 5734 5740 5746 5752 5756 5759 5763 5767 5769 5769 5773 5782 5804 5835 5835 5836 5838 5842 5838 5831 5843 5845 5836 5844 5836 5854 5850 5833 5841 5847 5849 5839
5684 5686 5688 5690 5692 5694 5695 5698 5701 5704 5709 5713 5716 5720 5725 5730 5737 5743 5751 5756 5761 5766 5770 5770 5768 5776 5790 5832 5831 5828 5834 5834 5840 5842 5838 5843 5843 5836 5839 5854 5843 5832 5840 5828 5843 5843 5842
5679 5680 5682 5685 5687 5689 5692 5695 5698 5700 5703 5707 5712 5717 5724 5729 5734 5740 5748 5756 5762 5766 5767 5767 5772 5777 5796 5825 5819 5835 5837 5827 5830 5834 5835 5839 5832 5825 5833 5823 5822 5834 5822 5832 5828 5845 5834
5673 5674 5676 5679 5680 5683 5685 5689 5693 5696 5700 5704 5707 5712 5719 5725 5733 5740 5749 5758 5760 5761 5764 5766 5773 5770 5806 5812 5825 5828 5834 5831 5822 5820 5815 5817 5814 5812 5819 5821 5803 5821 5823 5842 5834 5835 5836
5666 5667 5669 5671 5674 5677 5680 5682 5686 5690 5694 5699 5705 5710 5714 5722 5728 5735 5747 5765 5766 5769 5771 5792 5804 5806 5812 5822 5826 5821 5826 5819 5821 5813 5799 5814 5799 5800 5820 5833 5841 5846 5839 5837 5850 5854 5835
5663 5664 5665 5667 5670 5672 5674 5677 5680 5684 5689 5694 5700 5704 5710 5719 5725 5732 5740 5756 5757 5755 5768 5799 5805 5807 5813 5815 5796 5814 5824 5803 5802 5796 5809 5798 5797 5822 5831 5834 5832 5838 5834 5838 5857 5849 5839
5658 5659 5660 5661 5663 5665 5668 5671 5675 5678 5683 5688 5694 5698 5704 5714 5723 5733 5741 5749 5749 5752 5758 5798 5805 5804 5808 5809 5796 5806 5817 5809 5799 5794 5801 5796 5815 5827 5822 5821 5819 5830 5831 5838 5843 5839 5841
5651 5652 5653 5654 5656 5659 5662 5664 5668 5670 5674 5679 5686 5691 5696 5703 5722 5728 5739 5741 5739 5741 5751 5793 5793 5802 5802 5807 5793 5823 5826 5810 5799 5794 5801 5797 5823 5814 5807 5808 5824 5815 5847 5845 5841 5827 5806
5645 5645 5646 5648 5649 5651 5653 5656 5659 5662 5665 5670 5676 5683 5685 5683 5699 5719 5729 5730 5729 5731 5730 5791 5795 5817 5807 5796 5808 5806 5826 5808 5792 5794 5796 5794 5804 5803 5799 5814 5830 5824 5852 5839 5836 5829 5826
5638 5637 5637 5639 5639 5640 5643 5646 5650 5653 5657 5660 5665 5670 5674 5689 5692 5707 5713 5717 5721 5720 5726 5777 5795 5789 5787 5795 5799 5799 5798 5810 5808 5791 5794 5798 5815 5812 5815 5826 5829 5838 5828 5833 5832 5826 5800
5628 5628 5629 5628 5628 5628 5629 5631 5635 5639 5643 5649 5655 5661 5665 5672 5695 5698 5700 5708 5708 5720 5767 5767 5775 5785 5788 5787 5788 5789 5778 5777 5777 5762 5767 5781 5789 5810 5819 5806 5822 5820 5810 5782 5778 5788 5791
5617 5614 5613 5615 5614 5614 5614 5616 5618 5622 5628 5635 5644 5654 5669 5674 5679 5678 5685 5691 5699 5747 5756 5773 5772 5778 5766 5782 5783 5784 5776 5769 5783 5782 5775 5759 5753 5793 5809 5809 5810 5810 5812 5796 5767 5783 5797
5606 5602 5599 5596 5596 5596 5597 5599 5602 5605 5611 5618 5630 5652 5662 5670 5665 5665 5672 5685 5719 5737 5751 5753 5762 5754 5763 5770 5767 5772 5773 5776 5783 5786 5765 5766 5765 5800 5804 5810 5819 5810 5798 5832 5816 5826 5811
5590 5588 5584 5581 5578 5578 5579 5581 5583 5586 5591 5596 5613 5631 5652 5655 5650 5652 5662 5689 5719 5732 5743 5746 5738 5758 5751 5762 5753 5763 5770 5785 5783 5789 5793 5779 5755 5789 5797 5800 5815 5817 5831 5792 5811 5783 5780
5571 5567 5563 5561 5559 5558 5558 5559 5560 5563 5566 5574 5592 5614 5634 5630 5631 5641 5663 5688 5702 5718 5720 5720 5731 5736 5742 5746 5750 5758 5765 5776 5785 5784 5783 5779 5761 5772 5782 5778 5789 5795 5800 5807 5818 5812 5789
5546 5542 5538 5534 5531 5529 5529 5530 5532 5535 5537 5548 5563 5588 5605 5602 5610 5642 5656 5679 5685 5698 5708 5706 5717 5727 5728 5734 5735 5741 5746 5760 5782 5784 5764 5775 5766 5749 5769 5800 5804 5812 5799 5806 5790 5783 5807
5523 5518 5514 5510 5507 5504 5500 5499 5499 5499 5502 5512 5532 5556 5573 5573 5589 5613 5639 5646 5661 5666 5685 5692 5700 5712 5722 5721 5715 5730 5743 5761 5765 5768 5768 5774 5756 5740 5750 5776 5788 5784 5799 5805 5810 5815 5804
5498 5493 5488 5484 5481 5479 5477 5474 5473 5472 5471 5474 5497 5530 5551 5552 5564 5570 5589 5603 5624 5653 5663 5680 5690 5703 5700 5705 5719 5718 5727 5748 5756 5760 5754 5767 5762 5750 5752 5766 5789 5770 5781 5798 5803 5795 5796
5477 5473 5467 5461 5457 5455 5451 5449 5445 5445 5445 5445 5471 5502 5504 5526 5542 5535 5546 5568 5585 5610 5636 5657 5662 5682 5688 5687 5699 5705 5717 5731 5741 5747 5751 5753 5741 5763 5764 5778 5787 5785 5783 5781 5785 5796 5793
5459 5454 5449 5443 5436 5433 5430 5427 5421 5422 5420 5420 5440 5463 5474 5486 5495 5506 5519 5543 5559 5579 5594 5620 5639 5663 5674 5676 5689 5694 5704 5715 5721 5743 5744 5752 5733 5751 5754 5772 5776 5772 5783 5786 5788 5794 5800
5441 5435 5431 5428 5423 5420 5419 5416 5411 5407 5404 5411 5424 5429 5430 5472 5484 5492 5514 5526 5535 5539 5565 5589 5602 5615 5634 5656 5670 5687 5697 5708 5714 5719 5726 5735 5737 5733 5737 5771 5769 5754 5780 5788 5786 5796 5799
5425 5423 5419 5417 5414 5411 5408 5408 5406 5403 5398 5397 5407 5410 5409 5454 5475 5480 5494 5503 5512 5517 5528 5554 5570 5582 5613 5631 5645 5664 5679 5692 5697 5709 5722 5720 5725 5736 5737 5743 5718 5776 5802 5799 5792 5796 5807
5413 5412 5412 5409 5406 5404 5403 5402 5400 5399 5396 5393 5394 5394 5396 5422 5453 5466 5474 5486 5502 5508 5520 5530 5547 5569 5593 5605 5621 5641 5663 5676 5694 5710 5715 5726 5720 5726 5719 5735 5755 5768 5781 5781 5778 5783 5806
5404 5404 5403 5403 5401 5400 5399 5397 5397 5397 5395 5391 5392 5391 5392 5407 5451 5455 5462 5467 5488 5501 5518 5531 5540 5558 5574 5591 5619 5631 5653 5679 5683 5703 5722 5726 5722 5719 5729 5719 5709 5748 5751 5759 5761 5752 5806
5396 5397 5397 5397 5397 5396 5395 5394 5395 5394 5394 5390 5393 5393 5392 5401 5435 5446 5456 5470 5486 5496 5511 5521 5521 5544 5568 5588 5614 5640 5662 5699 5691 5693 5696 5704 5711 5713 5722 5711 5733 5735 5745 5763 5727 5765 5812
5391 5393 5393 5394 5393 5393 5392 5392 5392 5390 5391 5388 5393 5392 5390 5400 5418 5436 5454 5463 5463 5483 5500 5509 5519 5534 5552 5574 5614 5650 5679 5696 5702 5717 5700 5699 5703 5716 5717 5704 5708 5726 5745 5739 5747 5768 5783
5388 5390 5391 5391 5391 5391 5391 5391 5389 5388 5387 5386 5389 5395 5395 5397 5420 5438 5452 5462 5472 5480 5488 5496 5509 5519 5543 5564 5597 5624 5652 5688 5692 5697 5718 5705 5721 5720 5706 5719 5710 5721 5726 5742 5754 5761 5775